Weather in Avazbakeyeva

Russia / Tyumen Oblast     56°55′15″N   66°33′56″E
temp.,
°C
wind,
m/s
gust,
m/s
humid.,
%
clouds,
%
prec.,
mm/h
press.,
hPa
HPBL,
m
21 april, wed
wed2123:00+3wnw412637 0.0 1025253
02:00+1nw38785 0.0 1026148
05:000nnw25895 0.0 1028105
08:00+5n25715 0.0 1029353
11:00+9n465017 0.0 10301308
14:00+10n4549100 0.0 10311765
17:00+9nne3552100 0.0 10331249
20:00+6ene236693 0.0 103467
22 april, thu
thu2223:00+4e22725 0.0 103634
02:00+2se27705 0.0 1036135
05:00+1se37755 0.0 1038160
08:00+5sse47565 0.0 1039399
11:00+9sse56435 0.0 10391084
14:00+12s564018 0.0 10381590
17:00+12s564231 0.0 10371671
20:00+9sse51152100 0.0 1037461
23 april, fri
fri2323:00+7sse51349100 0.0 1037503
02:00+6sse41349100 0.0 1037398
05:00+5sse41152100 0.0 1037320
08:00+7s41055100 0.0 1036364
11:00+12s5847100 0.0 1036807
14:00+12s6843100 0.0 10351038
17:00+12s5842100 0.0 10351283
20:00+9sse4114598 0.0 1035399
24 april, sat
sat2423:00+7sse4114989 0.0 1034345
02:00+6sse41152100 0.0 1033298
05:00+4se3859100 0.0 1032192
08:00+7sse4947100 0.0 1031367
11:00+10sse4739100 0.0 1030727
14:00+11s4637100 0.0 10291175
17:00+10sse5747100 0.0 10281406
20:00+8se41048100 0.0 1027445
25 april, sun
sun2523:00+7se31050100 0.0 1025279
02:00+6ese31054100 0.0 1024271
05:00+6se41153100 0.0 1022325
08:00+8se41049100 0.0 1021557
11:00+13sse693477 0.0 10191253
14:00+15sse6829100 0.0 10172112
17:00+16sse582688 0.0 10152595
20:00+11sw495627 0.0 1016339